Weather History for Newton, KS

Change the Weather History Date:

Sunday, November 3, 2013

  Actual Average Record
Temperature  
Mean Temperature 50 °F -  
Max Temperature 60 °F 55 °F 75 °F (2008)
Min Temperature 41 °F 38 °F 28 °F (2006)
Degree Days  
Heating Degree Days 14    
Moisture  
Dew Point 33 °F    
Average Humidity 52    
Maximum Humidity 61    
Minimum Humidity 39    
Precipitation  
Precipitation 0.00 in - - ()
Sea Level Pressure  
Sea Level Pressure 29.96 in    
Wind  
Wind Speed 17 mph (South)    
Max Wind Speed 30 mph    
Max Gust Speed 41 mph    
Visibility 10 miles    
Events      
Averages and records for this station are not official NWS values.
T = Trace of Precipitation, MM = Missing Value Source: NWS Daily Summary

Daily Weather History Graph

Daily Weather History Graph

Search for Another Location

Airport:

Trip Planner

Search our weather history database for the weather conditions in past years. The results will help you decide how hot, cold, wet, or windy it might be!

Date:

Astronomy

Nov. 03, 2013 Rise Set
Actual Time 6:57 AM CST 5:27 PM CST
Civil Twilight 6:29 AM CST 5:54 PM CST
Nautical Twilight 5:58 AM CST 6:26 PM CST
Astronomical Twilight 5:27 AM CST 6:56 PM CST
Moon 7:02 AM CST (11/3) 5:44 PM CST (11/3)
Length of Visible Light 11h 25m
Length of Day
10h 30m
Waxing Crescent, 0% of the Moon is Illuminated
Nov 3
Waxing Crescent
Nov 9
First Quarter
Nov 17
Full
Nov 25
Last Quarter
Dec 2
New

Hourly Weather History & Observations

Time (CST) Temp. Windchill Dew Point Humidity Pressure Visibility Wind Dir Wind Speed Gust Speed Precip Events Conditions
12:15 AM 42.8 °F 37.5 °F 28.4 °F 57% 30.14 in 10.0 mi SSE 9.2 mph - N/A   Clear
12:35 AM 42.8 °F 38.0 °F 28.4 °F 57% 30.14 in 10.0 mi SSE 8.1 mph - N/A   Clear
12:55 AM 42.8 °F 37.0 °F 28.4 °F 57% 30.13 in 10.0 mi SSE 10.4 mph - N/A   Clear
1:15 AM 42.8 °F 37.5 °F 28.4 °F 57% 30.12 in 10.0 mi SSE 9.2 mph - N/A   Clear
1:35 AM 41.0 °F 34.7 °F 28.4 °F 61% 30.12 in 10.0 mi SSE 10.4 mph - N/A   Clear
1:55 AM 42.8 °F 36.6 °F 28.4 °F 57% 30.12 in 10.0 mi SSE 11.5 mph - N/A   Clear
1:15 AM 42.8 °F 36.6 °F 28.4 °F 57% 30.12 in 10.0 mi SSE 11.5 mph - N/A   Clear
1:35 AM 42.8 °F 36.2 °F 28.4 °F 57% 30.11 in 10.0 mi SSE 12.7 mph - N/A   Clear
1:55 AM 42.8 °F 36.2 °F 28.4 °F 57% 30.10 in 10.0 mi SSE 12.7 mph - N/A   Clear
2:15 AM 42.8 °F 36.2 °F 28.4 °F 57% 30.10 in 10.0 mi SSE 12.7 mph - N/A   Clear
2:35 AM 42.8 °F 36.2 °F 28.4 °F 57% 30.09 in 10.0 mi SSE 12.7 mph - N/A   Clear
2:55 AM 42.8 °F 37.0 °F 28.4 °F 57% 30.09 in 10.0 mi SSE 10.4 mph 18.4 mph N/A   Clear
3:15 AM 42.8 °F 35.4 °F 28.4 °F 57% 30.09 in 10.0 mi South 15.0 mph 19.6 mph N/A   Clear
3:35 AM 42.8 °F 35.4 °F 28.4 °F 57% 30.09 in 10.0 mi South 15.0 mph 23.0 mph N/A   Clear
3:55 AM 42.8 °F 35.8 °F 28.4 °F 57% 30.08 in 10.0 mi SSE 13.8 mph - N/A   Clear
4:15 AM 42.8 °F 35.8 °F 30.2 °F 61% 30.07 in 10.0 mi SSE 13.8 mph 20.7 mph N/A   Clear
4:35 AM 42.8 °F 35.8 °F 30.2 °F 61% 30.07 in 10.0 mi SSE 13.8 mph 19.6 mph N/A   Clear
4:55 AM 42.8 °F 35.8 °F 30.2 °F 61% 30.06 in 10.0 mi SSE 13.8 mph - N/A   Clear
5:15 AM 42.8 °F 35.4 °F 30.2 °F 61% 30.06 in 10.0 mi South 15.0 mph - N/A   Clear
5:35 AM 42.8 °F 35.4 °F 30.2 °F 61% 30.05 in 10.0 mi SSE 15.0 mph - N/A   Clear
5:55 AM 42.8 °F 34.8 °F 30.2 °F 61% 30.05 in 10.0 mi South 17.3 mph 23.0 mph N/A   Clear
6:15 AM 42.8 °F 34.8 °F 30.2 °F 61% 30.05 in 10.0 mi South 17.3 mph 23.0 mph N/A   Clear
6:35 AM 42.8 °F 34.8 °F 30.2 °F 61% 30.04 in 10.0 mi South 17.3 mph 23.0 mph N/A   Clear
6:55 AM 42.8 °F 35.1 °F 30.2 °F 61% 30.04 in 10.0 mi South 16.1 mph 21.9 mph N/A   Clear
7:15 AM 42.8 °F 35.1 °F 30.2 °F 61% 30.04 in 10.0 mi South 16.1 mph - N/A   Clear
7:35 AM 42.8 °F 34.5 °F 30.2 °F 61% 30.03 in 10.0 mi South 18.4 mph 24.2 mph N/A   Clear
7:55 AM 44.6 °F 37.2 °F 30.2 °F 57% 30.03 in 10.0 mi South 17.3 mph 27.6 mph N/A   Clear
8:15 AM 44.6 °F 37.2 °F 30.2 °F 57% 30.03 in 10.0 mi South 17.3 mph - N/A   Clear
8:35 AM 46.4 °F 38.5 °F 30.2 °F 53% 30.03 in 10.0 mi South 21.9 mph 26.5 mph N/A   Clear
8:55 AM 46.4 °F 38.7 °F 32.0 °F 57% 30.02 in 10.0 mi South 20.7 mph 26.5 mph N/A   Clear
9:15 AM 46.4 °F 39.5 °F 32.0 °F 57% 30.01 in 10.0 mi South 17.3 mph 24.2 mph N/A   Clear
9:35 AM 51.8 °F - 32.0 °F 47% 30.00 in 10.0 mi South 23.0 mph 29.9 mph N/A   Clear
9:55 AM 51.8 °F - 32.0 °F 47% 30.00 in 10.0 mi South 23.0 mph 35.7 mph N/A   Clear
10:15 AM 51.8 °F - 32.0 °F 47% 29.99 in 10.0 mi South 24.2 mph 33.4 mph N/A   Clear
10:35 AM 51.8 °F - 33.8 °F 50% 29.99 in 10.0 mi South 23.0 mph 29.9 mph N/A   Clear
10:55 AM 53.6 °F - 33.8 °F 47% 29.99 in 10.0 mi South 21.9 mph 31.1 mph N/A   Clear
11:15 AM 53.6 °F - 33.8 °F 47% 29.98 in 10.0 mi South 24.2 mph 31.1 mph N/A   Clear
11:35 AM 53.6 °F - 33.8 °F 47% 29.97 in 10.0 mi South 24.2 mph 33.4 mph N/A   Clear
11:55 AM 55.4 °F - 33.8 °F 44% 29.96 in 10.0 mi South 27.6 mph 35.7 mph N/A   Clear
12:15 PM 55.4 °F - 35.6 °F 47% 29.94 in 10.0 mi South 25.3 mph 33.4 mph N/A   Clear
12:35 PM 57.2 °F - 35.6 °F 44% 29.91 in 10.0 mi South 27.6 mph 36.8 mph N/A   Clear
12:55 PM 59.0 °F - 35.6 °F 42% 29.87 in 10.0 mi South 23.0 mph 35.7 mph N/A   Clear
1:15 PM 59.0 °F - 35.6 °F 42% 29.87 in 10.0 mi South 27.6 mph 36.8 mph N/A   Clear
1:35 PM 60.8 °F - 35.6 °F 39% 29.87 in 10.0 mi South 26.5 mph 35.7 mph N/A   Clear
1:55 PM 60.8 °F - 37.4 °F 42% 29.85 in 10.0 mi South 28.8 mph 38.0 mph N/A   Clear
2:15 PM 60.8 °F - 35.6 °F 39% 29.85 in 10.0 mi South 29.9 mph 35.7 mph N/A   Clear
2:35 PM 60.8 °F - 35.6 °F 39% 29.84 in 10.0 mi South 25.3 mph 41.4 mph N/A   Clear
2:55 PM 60.8 °F - 35.6 °F 39% 29.82 in 10.0 mi South 25.3 mph 39.1 mph N/A   Clear
3:15 PM 59.0 °F - 35.6 °F 42% 29.82 in 10.0 mi South 26.5 mph 32.2 mph N/A   Clear
3:35 PM 59.0 °F - 35.6 °F 42% 29.83 in 10.0 mi South 23.0 mph 29.9 mph N/A   Clear
3:55 PM 59.0 °F - 35.6 °F 42% 29.83 in 10.0 mi South 25.3 mph 35.7 mph N/A   Clear
4:15 PM 57.2 °F - 35.6 °F 44% 29.84 in 10.0 mi South 20.7 mph 31.1 mph N/A   Clear
4:35 PM 57.2 °F - 35.6 °F 44% 29.83 in 10.0 mi South 21.9 mph 33.4 mph N/A   Clear
4:55 PM 57.2 °F - 35.6 °F 44% 29.82 in 10.0 mi South 24.2 mph 32.2 mph N/A   Clear
5:15 PM 55.4 °F - 35.6 °F 47% 29.82 in 10.0 mi South 23.0 mph 34.5 mph N/A   Clear
5:35 PM 55.4 °F - 35.6 °F 47% 29.82 in 10.0 mi South 23.0 mph 33.4 mph N/A   Clear
5:55 PM 55.4 °F - 33.8 °F 44% 29.82 in 10.0 mi South 25.3 mph 33.4 mph N/A   Clear
6:15 PM 55.4 °F - 35.6 °F 47% 29.83 in 10.0 mi South 25.3 mph 32.2 mph N/A   Clear
6:35 PM 53.6 °F - 33.8 °F 47% 29.84 in 10.0 mi South 25.3 mph 32.2 mph N/A   Clear
6:55 PM 53.6 °F - 33.8 °F 47% 29.84 in 10.0 mi South 23.0 mph 29.9 mph N/A   Partly Cloudy
7:15 PM 53.6 °F - 35.6 °F 51% 29.85 in 10.0 mi South 21.9 mph 32.2 mph N/A   Clear
7:35 PM 53.6 °F - 35.6 °F 51% 29.84 in 10.0 mi South 25.3 mph 31.1 mph N/A   Clear
7:55 PM 53.6 °F - 35.6 °F 51% 29.85 in 10.0 mi South 21.9 mph 29.9 mph N/A   Clear
8:15 PM 51.8 °F - 35.6 °F 54% 29.84 in 10.0 mi South 19.6 mph 28.8 mph N/A   Clear
8:35 PM 51.8 °F - 35.6 °F 54% 29.84 in 10.0 mi South 19.6 mph 27.6 mph N/A   Clear
8:55 PM 51.8 °F - 35.6 °F 54% 29.84 in 10.0 mi South 20.7 mph 29.9 mph N/A   Clear
9:15 PM 51.8 °F - 35.6 °F 54% 29.84 in 10.0 mi South 24.2 mph 29.9 mph N/A   Clear
9:35 PM 51.8 °F - 35.6 °F 54% 29.84 in 10.0 mi South 25.3 mph 31.1 mph N/A   Clear
9:55 PM 51.8 °F - 35.6 °F 54% 29.85 in 10.0 mi South 21.9 mph 28.8 mph N/A   Clear
10:15 PM 51.8 °F - 35.6 °F 54% 29.85 in 10.0 mi South 24.2 mph 31.1 mph N/A   Clear
10:35 PM 51.8 °F - 35.6 °F 54% 29.85 in 10.0 mi South 23.0 mph 32.2 mph N/A   Clear
10:55 PM 51.8 °F - 35.6 °F 54% 29.85 in 10.0 mi South 23.0 mph 29.9 mph N/A   Clear